Regional Weather Roundup
Issued by NWS

Home | Current Version | Previous Version | Graphics & Text | Print | Product List | Glossary On
Versions: 1 2 3 4 5 6 7 8 9 10 11 12 13 14 15 16 17 18 19 20 21 22 23 24 25 26 27 28 29 30 31 32 33 34 35 36 37 38 39 40 41 42 43 44 45 46 47 48 49 50
000
ASUS43 KMPX 210710
RWRMN
WEATHER ROUNDUP FOR MINNESOTA
NATIONAL WEATHER SERVICE TWIN CITIES/CHANHASSEN MN
200 AM CDT SUN SEP 21 2014


NOTE: "FAIR" INDICATES FEW OR NO CLOUDS BELOW 12,000 FEET WITH NO
SIGNIFICANT WEATHER AND/OR OBSTRUCTIONS TO VISIBILITY. N/A MEANS
CURRENT SKY AND/OR WEATHER CONDITIONS ARE NOT AVAILABLE.

MNZ060>063-068>070-210800-
   Twin Cities Metro

CITY           SKY/WX    TMP DP  RH WIND       PRES   REMARKS
TWIN CITIES    PTCLDY    55  50  83 NW12      29.87R
ST PAUL        CLEAR     56  48  74 NW21G28   29.85R
CRYSTAL        CLEAR     57  48  72 NW13      29.86R
BLAINE         CLEAR     55  52  88 W12       29.86R
LAKEVILLE      CLEAR     54  50  87 W12G17    29.86S
EDEN PRAIRIE   CLEAR     57  50  77 NW12G22   29.87R
SOUTH ST PAUL  CLEAR     58  48  71 NW15G25   29.85S
LAKE ELMO      FAIR      55  48  76 NW16G23   29.85R
$$
MNZ001>005-007-008-013>017-022>024-027-028-210800-
   Northwest Minnesota

CITY           SKY/WX    TMP DP  RH WIND       PRES   REMARKS
BEMIDJI        CLOUDY    49  47  95 NW7       29.96R
HALLOCK        MOCLDY    52  48  87 N7        29.99S
ROSEAU         CLOUDY    52  46  82 W8        29.96R
WARROAD        DRIZZLE   50  46  87 W5        29.96R
THIEF RVR FALL CLOUDY    52  50  93 NW9       29.99R
CROOKSTON      MOCLDY    52  50  93 NW7       30.01R
FOSSTON        PTCLDY    48  48 100 NW3       29.98R
DETROIT LAKES  CLOUDY    52  50  93 NW12      30.00R
MOORHEAD       CLEAR     54  52  94 NW6       30.02R
PARK RAPIDS    MOCLDY    51  48  89 N10       29.95R
MAHNOMEN       CLOUDY    50  50  97 NW6       29.98R
$$
MNZ006-009>011-018-025>026-210800-
   North Central Minnesota

CITY           SKY/WX    TMP DP  RH WIND       PRES   REMARKS
BAUDETTE       CLOUDY    50  48  93 W5        29.94R
FLAG ISLAND    CLOUDY    52  48  87 W7        29.93R
INTL FALLS     LGT RAIN  49  48  97 NW9       29.90R
WASKISH        LGT RAIN  50  48  93 NW8       29.95R
BIG FORK       LGT RAIN  50  48  93 NW8       29.91R
LONGVILLE      CLOUDY    52  48  87 NW7       29.91R
GRAND RAPIDS   CLOUDY    50  46  87 NW16      29.89R
CRANE LAKE     CLOUDY    52  50  93 N5        29.88R
ORR            DRIZZLE   52  48  87 NW3       29.85R
COOK           CLOUDY    52  52 100 NW5       29.86R
WALKER         FAIR      48  46  93 NW5       29.95R
$$
MNZ012-019>021-037-210800-
   Northeast Minnesota

CITY           SKY/WX    TMP DP  RH WIND       PRES   REMARKS
DULUTH         CLOUDY    52  49  89 NW10      29.79R
ELY            CLOUDY    52  50  93 N3        29.82R
HIBBING        LGT RAIN  52  49  89 N17G25    29.85R
EVELETH        CLOUDY    52  50  93 N9        29.84R
DULUTH HARBOR  CLOUDY    54  52  94 NW18      29.78R
TWO HARBORS    CLOUDY    54  48  82 N3        29.76R
SILVER BAY     LGT RAIN  50  50 100 NE9       29.77R
GRAND MARAIS     N/A     53  48  83 VRB5      29.77R
G MARAIS ARPRT CLOUDY    46  45  93 N8        29.79R
$$
MNZ029>031-032-039>041-046>048-054>057-064-210800-
   West Central Minnesota

CITY           SKY/WX    TMP DP  RH WIND       PRES   REMARKS
FERGUS FALLS   CLOUDY    52  48  87 NW9       30.01R
WHEATON        CLEAR     52  46  82 W8        30.03R
MORRIS         CLEAR     52  48  87 NW10      29.98R
ALEXANDRIA     CLEAR     53  49  86 NW12      29.98R
ELBOW LAKE     CLOUDY    53  49  87 NW13      29.99R
WADENA         CLEAR     50  48  93 NW8       29.95R
GLENWOOD       CLEAR     54  48  82 NW13      29.97R
APPLETON       CLEAR     55  46  71 NW10      29.99R
BENSON         CLEAR     52  48  87 N10       29.98R
ORTONVILLE     CLEAR     57  45  62 NW10      30.01R
MADISON        CLEAR     57  46  67 NW10      30.00R
WILLMAR        FAIR      54  48  82 NW10      29.97R
$$
MNZ033>034-036-042>043-049>051-058-059-210800-
   Central Minnesota

CITY           SKY/WX    TMP DP  RH WIND       PRES   REMARKS
ST CLOUD       CLEAR     55  47  74 NW13      29.90R
SAUK CENTRE    FAIR      50  49  93 W8        29.95R
PAYNESVILLE    CLEAR     50  48  93 W8        29.94R
AITKIN         MIX PCPN  54  46  76 NW8       29.87R
PINE RIVER     CLOUDY    52  46  82 NW7       29.96R
BRAINERD       CLOUDY    51  46  83 NW15      29.92R
STAPLES        FAIR      48  46  93 NW8       29.94R
LONG PRAIRIE   FAIR      50  46  87 W8        29.95R
LITTLE FALLS   CLEAR     52  45  76 NW6       29.92R
LITCHFIELD     CLEAR     55  52  88 NW13      29.93R
BUFFALO        CLEAR     55  49  79 W9        29.90R
MAPLE LAKE     CLEAR     55  51  86 NW12G17   29.91R
$$
MNZ037-044-045-052-053-210800-
   East Central Minnesota

CITY           SKY/WX    TMP DP  RH WIND       PRES   REMARKS
PRINCETON      CLEAR     54  46  76 NW10      29.88R
MORA           PTCLDY    50  45  81 NW16G22   29.87R
CAMBRIDGE      CLEAR     55  45  67 NW12      29.85R
RUSH CITY      MOCLDY    52  46  80 NW9G16    29.85R
MOOSE LAKE     RAIN      50  46  87 NW9G16    29.82R
HINCKLEY       LGT RAIN  52  48  87 NW13G18   29.83R
CLOQUET        RAIN      52  48  87 NW13      29.81R
MCGREGOR       CLOUDY    50  46  87 NW13G18   29.87R
$$
MNZ071>073-080-081-089-090-097-098-210800-
   Southwest Minnesota

CITY           SKY/WX    TMP DP  RH WIND       PRES   REMARKS
MONTEVIDEO     CLEAR     54  46  76 N9        29.99R
GRANITE FALLS  CLEAR     52  47  83 W8        30.00R
CANBY          CLEAR     57  46  66 W12       30.02R
MARSHALL       CLEAR     57  41  54 NW14      29.99R
REDWOOD FALLS  CLEAR     56  47  71 NW12      29.96R
OLIVIA         CLEAR     52  46  82 NW7       29.96R
PIPESTONE      CLEAR     55  45  67 NW12      30.04R
WINDOM         CLEAR     55  46  71 W10       29.99R
WORTHINGTON    CLEAR     55  43  62 W14       30.02R
JACKSON        CLEAR     57  43  58 W12       29.99R
TRACY          CLEAR     57  45  63 W7        30.00R
SLAYTON        CLEAR     56  43  60 W12       30.02R
$$
MNZ065>067-074>077-082>085-091>093-210800-
   South Central Minnesota

CITY           SKY/WX    TMP DP  RH WIND       PRES   REMARKS
MANKATO        MOCLDY    55  46  71 W12G17    29.92S
NEW ULM        CLEAR     55  50  82 NW10      29.95R
ST JAMES       CLEAR     59  46  63 W12G20    29.97R
FAIRMONT       CLEAR     59  43  55 W12       29.95S
GLENCOE        CLEAR     55  50  83 W10       29.91R
FARIBAULT      PTCLDY    59  52  77 W12G17    29.89S
OWATONNA       CLEAR     55  52  88 W10       29.90S
WASECA         PTCLDY    52  46  82 W7        29.93R
ALBERT LEA     CLEAR     57  52  82 W8        29.91S
$$
MNZ078>079-086>088-094>096-210800-
   Southeast Minnesota

CITY           SKY/WX    TMP DP  RH WIND       PRES   REMARKS
ROCHESTER      CLEAR     55  51  86 W15       29.87S
RED WING       CLEAR     57  52  82 NW14      29.82R
STANTON        PTCLDY    56  51  81 W8        29.86S
DODGE CENTER   PTCLDY    55  54  94 W14       29.88S
WINONA         CLEAR     59  50  72 W16G24    29.80S
AUSTIN         CLEAR     55  52  88 W10       29.89S
PRESTON        CLEAR     55  54  98 W16       29.87S
$$
ABBREVIATIONS USED IN REMARKS
   TC - TEMPERATURES IN CELSIUS
  WCI - WIND CHILL INDEX
   HX - HEAT INDEX
  VSB - VISIBILITY
$$


USA.gov is the U.S. government's official web portal to all federal, state and local government web resources and services.